Regional Weather Roundup
Issued by NWS Wakefield, VA

Home | Current Version | Previous Version | Graphics & Text | Print | Product List | Glossary On
Versions: 1 2 3 4 5 6 7 8 9 10 11 12 13 14 15 16 17 18 19 20 21 22 23 24 25 26 27 28 29 30 31 32 33 34 35 36 37 38 39 40 41 42 43 44 45 46 47 48 49 50
369
ASUS41 KAKQ 231615
RWRAKQ

REGIONAL WEATHER ROUNDUP
NATIONAL WEATHER SERVICE WAKEFIELD VA
1200 PM EDT THU MAR 23 2017

Note: "fair" indicates few or no clouds below 12,000 feet with no
significant weather and/or obstructions to visibility. * = Denotes
station may not report precipitation (e.g., rain,snow,etc.),
thunder or fog.

VAZ042-051-052>054-056-231700-
NORTHERN VIRGINIA

CITY           SKY/WX    TMP DP  RH WIND       PRES   REMARKS
WASH NATIONAL  SUNNY     39   5  24 VRB3      30.67F
DULLES         SUNNY     38   5  25 N5        30.65F
FORT BELVOIR   SUNNY     40   6  23 W5        30.66F
QUANTICO       SUNNY     39   8  27 CALM      30.68F
FREDERICKSBRG* SUNNY     40  12  32 NE3       30.66S
STAFFORD*      SUNNY     38   8  29 CALM      30.69F
WARRENTON      SUNNY     40  -2  17 N3        30.63F
CULPEPER*      SUNNY     39   8  28 CALM      30.65F
MANASSAS*      SUNNY     38   6  26 VRB3      30.66S
LEESBURG*      SUNNY     37  12  35 CALM      30.65F
WINCHESTER     SUNNY     34   7  32 CALM      30.61F
FRONT ROYAL*   SUNNY     36   7  30 CALM      30.60F
LURAY*         SUNNY     37  14  38 CALM      30.59F
$$

VAZ048-049-060>072-079>083-231700-
CENTRAL AND SOUTH CENTRAL VIRGINIA

CITY           SKY/WX    TMP DP  RH WIND       PRES   REMARKS
RICHMOND       MOSUNNY   41  11  29 VRB3      30.65F
CHESTERFIELD*  FAIR      41   5  22 CALM      30.66F
PETERSBURG*    SUNNY     40   8  26 NE8       30.65F
HANOVER        SUNNY     40  12  32 MISG      30.67S
TAPPAHANNOCK*  SUNNY     39  -8  13 CALM      30.67S
QUINTON*       FAIR      39  10  31 E3        30.66S
CHARLOTTSVILLE SUNNY     41   9  26 S7        30.61F
GORDONSVILLE*  SUNNY     40  10  28 NE5       30.62F
ORANGE*        SUNNY     37  10  32 N5        30.64F
LOUISA*        SUNNY     45  12  26 CALM      30.62F
BUMPASS*       FAIR      40   9  27 N3        30.64S
FARMVILLE*     SUNNY     44  14  29 CALM      30.62F
CREWE*         FAIR      42  14  32 NE3       30.62F
FORT PICKETT*  FAIR      42   0  17 NE6       30.62F
CHASE CITY*    FAIR      42  11  28 CALM      30.62S
CLARKSVILLE*   FAIR      43  18  36 E6        30.62S
SOUTH HILL*    SUNNY     41  15  33 E3        30.68S
LAWRENCEVILLE* FAIR      42  11  27 N5        30.63S
EMPORIA*       SUNNY     43  14  31 N7        30.66R
$$

VAZ088>098-231700-
SOUTHEAST VIRGINIA

CITY           SKY/WX    TMP DP  RH WIND       PRES   REMARKS
NORFOLK        SUNNY     39  13  34 VRB7      30.66S
VIRGINIA BEACH SUNNY     39  14  36 NE12      30.65S
NORFOLK NAVAL  SUNNY     41  15  35 NE12      30.68S
WEST POINT*    SUNNY     40   7  25 N5        30.68F
SALUDA*        FAIR      36  15  43 E9        30.67F
NEWPORT NEWS   SUNNY     40  17  39 NE12      30.66F
LANGLEY AFB    SUNNY     38  16  41 NE9       30.66S
FORT EUSTIS    SUNNY     44  13  29 NE10      30.63F
WILLIAMSBURG*  SUNNY     45  18  33 CALM      30.66F
HR EXEC AP*    FAIR      41  18  38 NE12G20   30.65S
FRANKLIN*      SUNNY     42  14  32 N10G16    30.65F
US460-WAKEFLD  SUNNY     42  14  32 NE8       30.65S
$$

VAZ020-022-025-037-045-231700-
WEST CENTRAL AND SOUTHWEST VIRGINIA

CITY           SKY/WX    TMP DP  RH WIND       PRES   REMARKS
STAUNTON*      SUNNY     38  12  34 SE6       30.59F
WAYNESBORO*    SUNNY     38  11  32 E5        30.56F
HOT SPRINGS VA SUNNY     32   5  32 S7        30.44S
LYNCHBURG      SUNNY     40   8  26 N6        30.61F
DANVILLE       SUNNY     45  11  25 MISG      30.61F
SOUTH BOSTON*  FAIR      45   9  23 NE3       30.61F
MARTINSVILLE   SUNNY     44   6  20 W5        30.60F
ROANOKE        MOSUNNY   42   9  25 SE8       30.59F
BLACKSBURG     SUNNY     40  11  30 SE3       30.54F
DUBLIN*        SUNNY     44  12  28 SW8G16    30.51F
MARION*        SUNNY     46  15  28 E8        30.49S
HILLSVILLE*    SUNNY     39  13  34 CALM      30.48S
RICHLANDS*     FAIR      49  18  29 CALM      30.41F
WISE*          SUNNY     50  18  27 SE5G16    30.41S
ABINGDON*      SUNNY     53  18  25 E7        30.44F
$$

MDZ021>025-VAZ099-100-231700-
SOUTHERN MARYLAND AND THE DELMARVA PENINSULA

CITY           SKY/WX    TMP DP  RH WIND       PRES   REMARKS
PATUXENT RIVER MOSUNNY   36  13  38 NE9       30.67F
BAY BRIDGE APT SUNNY     34  10  37 NW7       30.67F
LEONARDTOWN    SUNNY     36   9  32 E7        30.67F
DOVER          SUNNY     35  12  38 N3        30.64F
GEORGETOWN     SUNNY     37  11  34 E5        30.66F
EASTON         SUNNY     37   1  22 NE5       30.70F
CAMBRIDGE      SUNNY     36   7  30 N7        30.66F
SALISBURY      SUNNY     38  11  32 VRB5      30.65F
OCEAN CITY     SUNNY     35  12  38 E7        30.66F
WALLOPS ISLAND SUNNY     36  15  42 E6        30.67S
ACCOMACK*      SUNNY     38   5  25 CALM      30.66S
$$

NCZ012>017-030>032-231700-
NORTH CENTRAL AND EASTERN NORTH CAROLINA

CITY           SKY/WX    TMP DP  RH WIND       PRES   REMARKS
ROANOKE RAPIDS FAIR      43  19  39 E6        30.63S
RALEIGH        MOSUNNY   47  17  30 E8        30.61S
ELIZABETH CITY SUNNY     44  20  38 N14       30.65R
AHOSKIE*       NOT AVBL
EDENTON*       SUNNY     46  23  41 NE12      30.64S
CURRITUCK*     SUNNY     41  18  39 N13G20    30.65S
KILL DEVIL HLS NOT AVBL
MANTEO         SUNNY     41  22  47 NE18      30.64R
CAPE HATTERAS  SUNNY     45  25  45 NE13G23   30.60F
TARBORO*       NOT AVBL
GOLDSBORO      SUNNY     47  18  32 NE8       30.60S
WASHINGTON     SUNNY     45  21  38 NE10      30.63R
GREENVILLE     SUNNY     46  19  34 NE8       30.61S
NEW BERN       SUNNY     48  26  42 N12       30.62S
WILMINGTON     SUNNY     50  27  40 E10       30.59S
$$

VAZ048-231700-
ELSEWHERE

CITY           SKY/WX    TMP DP  RH WIND       PRES   REMARKS
HARRISBURG PA  SUNNY     35   7  31 CALM      30.62F
BALTIMORE      MOSUNNY   37   5  26 NE6       30.65F
ANNAPOLIS      SUNNY     36  14  40 SE9       30.67F
ANDREWS AFB    SUNNY     37   4  25 VRB5      30.64F
PHILADELPHIA   SUNNY     36   7  29 VRB3      30.64F
HENDERSON NC   SUNNY     42  14  32 SE5       30.61S
GREENSBORO     MOSUNNY   46  10  23 VRB3      30.57S
ROCKY MOUNT    SUNNY     46  17  31 NE5       30.63S
$$

VAZ100-231700-
MARINE

STATION/POSITION TIME  TEMP    WIND        PRES    WAVE   SWELL
                       AIR SEA DIR/SP/G            HT/PER HT/PER
                 (UTC) (F)     (DEG/KT/KT) (MB)    (FT/S) (FT/S)
CAPE MAY NJ      1542   32 41  310/  7/  9 1037.9F
LEWES DE         1542   29 42  320/  5/  6 1038.5F
OCEAN-CITY-INLET 1542   32 42   20/  6/ 10 1038.7F
WACHAPREAGUE VA  1542   34 45   70/  9/ 12 1038.2S
THOMAS POINT MD  1600   32 43   80/  5/  5   N/A
GOOSES REEF MD   1600   32 43   60/  6/  8 1039.2    1
COVE POINT MD    1542   31      30/  8/ 10 1039.3F
SOLOMONS ISLAND  1542   33 45   60/  6/ 10   N/A
BISHOPS HEAD MD  1542   34 42   20/  6/  9 1038.8F
PINEY POINT MD   1548          360/  3/  4   N/A
POTOMAC MD       1600   33 45   70/  6/ 10 1037.9    1
CAMBRIDGE MD     1542   33 43   CALM  /  1 1038.1F
LEWISETTA VA     1542   33 46   90/  6/  7 1038.5F
RAPPAHANNOCK LGT 1548          360/  9/ 10 1039.1S
STINGRAY PT      1550   32      50/  8/ 12 1038.8S
YORK RVR RNG VA  1542   34      50/ 12/ 15 1037.9F
YORKTOWN VA      1542   36 47   50/  9/ 13 1038.0F
JAMESTOWN VA     1600   38 50   90/  4/  8   N/A     0
DOMINION TERM VA 1542   37      40/  5/ 10 1038.4S
KIPTOPEKE VA     1548      46   30/  7/ 10   N/A
CHES BAY BRIDGE  1536   34 47   20/ 12/ 15 1038.1F
CAPE HENRY VA    1536   34      20/ 11/ 16   N/A
WILLOUBY STN VA  1542   34      30/ 14/ 18 1039.1F
S CRANEY ISL VA  1542   35      50/ 12/ 14 1038.1F
CAPE HENRY BUOY  1542      45                N/A     5/ 7
CAPE CHARLES BUO 1551      45                N/A     4/ 7
OFFSHORE WE BUOY 1551      45                N/A     6/ 7   2/11
64NM E OF VA BCH 1550   37 50   20/ 16/ 19 1036.8R   7/ 8   3/ 8
DUCK PIER NC     1536   37 47   30/ 17/ 21 1037.0R
44100 DUCK FRF   1535      47                N/A     7/ 7   2/11
44056 DUCK FRF   1530      47                N/A     5/ 8   2/11
OREGON INLET NC  1548           20/ 12/ 17   N/A
HATTERAS NC      1536   41 51   20/ 15/ 23 1035.7F
DIAMOND SHLS NC  1550   45 73   30/ 17/ 25 1035.7S   9/11   7/11
CAPE LOOKOUT NC  1500   44      30/ 20/ 23 1035.7R
$$




USA.gov is the U.S. government's official web portal to all federal, state and local government web resources and services.